,,Stat6,,Stat2,,Stat8,,Stat9,,Stat10,,Wind1,,Wind1,
time,status,PA1M_AVG,status,PR1M_SUM,status,RH1M_AVG,status,SR1M_AVG,status,TA1M_AVG,status,W1dAve1m,status,W1sAve1m,
2005-01-27, 00:00:00,VALID,916.138,VALID,0,VALID,100,VALID,0,VALID,19.9395,VALID,103,VALID,0.848958,
2005-01-27, 00:01:00,VALID,916.12,VALID,0,VALID,100,VALID,0,VALID,19.9549,VALID,103,VALID,0.778832,
2005-01-27, 00:02:00,VALID,916.111,VALID,0,VALID,100,VALID,0,VALID,19.9645,VALID,103,VALID,0.855841,
2005-01-27, 00:03:00,VALID,916.106,VALID,0,VALID,100,VALID,0,VALID,19.9675,VALID,103,VALID,0.986919,
2005-01-27, 00:04:00,VALID,916.108,VALID,0,VALID,100,VALID,0,VALID,20.0105,VALID,103,VALID,1.08873,
2005-01-27, 00:05:00,VALID,916.099,VALID,0,VALID,100,VALID,0,VALID,20.0324,VALID,99,VALID,0.980382,
2005-01-27, 00:06:00,VALID,916.109,VALID,0,VALID,100,VALID,0.0169808,VALID,19.9802,VALID,88,VALID,0.80599,
2005-01-27, 00:07:00,VALID,916.116,VALID,0,VALID,100,VALID,0.0169808,VALID,19.89,VALID,88,VALID,0.541109,
2005-01-27, 00:08:00,VALID,916.133,VALID,0,VALID,100,VALID,0,VALID,19.7576,VALID,86,VALID,0.534339,
2005-01-27, 00:09:00,VALID,916.143,VALID,0,VALID,100,VALID,0,VALID,19.7544,VALID,86,VALID,0.530273,
2005-01-27, 00:10:00,VALID,916.139,VALID,0,VALID,100,VALID,0.0169808,VALID,19.8155,VALID,86,VALID,0.698153,
2005-01-27, 00:11:00,VALID,916.143,VALID,0,VALID,100,VALID,0.0169808,VALID,19.8771,VALID,95,VALID,0.708147,
2005-01-27, 00:12:00,VALID,916.135,VALID,0,VALID,100,VALID,0,VALID,19.9094,VALID,97,VALID,0.577446,
2005-01-27, 00:13:00,VALID,916.122,VALID,0,VALID,100,VALID,0.0169808,VALID,19.9029,VALID,97,VALID,0.525073,
2005-01-27, 00:14:00,VALID,916.111,VALID,0,VALID,100,VALID,0.0169808,VALID,19.9059,VALID,97,VALID,0.232851,
2005-01-27, 00:15:00,VALID,916.121,VALID,0,VALID,100,VALID,0,VALID,19.8997,VALID,97,VALID,0.214334,
2005-01-27, 00:16:00,VALID,916.11,VALID,0,VALID,100,VALID,0.0169808,VALID,19.8838,VALID,97,VALID,0.0363991,
2005-01-27, 00:17:00,VALID,916.126,VALID,0,VALID,100,VALID,0,VALID,19.8381,VALID,97,VALID,0,
2005-01-27, 00:18:00,VALID,916.136,VALID,0,VALID,100,VALID,0.0169808,VALID,19.8155,VALID,97,VALID,0,
2005-01-27, 00:19:00,VALID,916.136,VALID,0,VALID,100,VALID,0,VALID,19.7904,VALID,97,VALID,0.0308866,
2005-01-27, 00:20:00,VALID,916.137,VALID,0,VALID,100,VALID,-0.0509425,VALID,19.7556,VALID,97,VALID,0.189704,
2005-01-27, 00:21:00,VALID,916.131,VALID,0,VALID,100,VALID,-0.118866,VALID,19.743,VALID,97,VALID,0.232279,
2005-01-27, 00:22:00,VALID,916.112,VALID,0,VALID,100,VALID,-0.0849042,VALID,19.691,VALID,97,VALID,0.0290421,
2005-01-27, 00:23:00,VALID,916.087,VALID,0,VALID,100,VALID,-0.0849042,VALID,19.659,VALID,97,VALID,0.133176,
2005-01-27, 00:24:00,VALID,916.06,VALID,0,VALID,100,VALID,-0.101885,VALID,19.4978,VALID,97,VALID,0.323289,
2005-01-27, 00:25:00,VALID,916.051,VALID,0,VALID,100,VALID,-0.0849042,VALID,19.3135,VALID,81,VALID,0.568714,
2005-01-27, 00:26:00,VALID,916.032,VALID,0,VALID,99.9601,VALID,-0.0679233,VALID,19.1912,VALID,59,VALID,0.697599,
2005-01-27, 00:27:00,VALID,916.019,VALID,0,VALID,100,VALID,-0.0849042,VALID,19.1937,VALID,55,VALID,0.577415,
2005-01-27, 00:28:00,VALID,916.021,VALID,0,VALID,100,VALID,-0.0849042,VALID,19.2196,VALID,55,VALID,0.380682,
2005-01-27, 00:29:00,VALID,916.019,VALID,0,VALID,100,VALID,-0.0849042,VALID,19.2593,VALID,55,VALID,0.302641,
2005-01-27, 00:30:00,VALID,916.011,VALID,0,VALID,100,VALID,-0.101885,VALID,19.3015,VALID,55,VALID,0.309273,
2005-01-27, 00:31:00,VALID,916.011,VALID,0,VALID,100,VALID,-0.118866,VALID,19.3435,VALID,55,VALID,0.466602,
2005-01-27, 00:32:00,VALID,916.002,VALID,0,VALID,100,VALID,-0.0849042,VALID,19.3592,VALID,55,VALID,0.493862,
2005-01-27, 00:33:00,VALID,916,VALID,0,VALID,100,VALID,-0.101885,VALID,19.3338,VALID,55,VALID,0.598704,
2005-01-27, 00:34:00,VALID,915.993,VALID,0,VALID,100,VALID,-0.0849042,VALID,19.2817,VALID,55,VALID,0.691311,
2005-01-27, 00:35:00,VALID,915.986,VALID,0,VALID,100,VALID,0,VALID,19.2814,VALID,55,VALID,0.671094,
2005-01-27, 00:36:00,VALID,915.984,VALID,0,VALID,100,VALID,0.0339617,VALID,19.2641,VALID,55,VALID,0.757813,
2005-01-27, 00:37:00,VALID,915.975,VALID,0,VALID,100,VALID,0,VALID,19.2837,VALID,55,VALID,0.921875,
2005-01-27, 00:38:00,VALID,915.978,VALID,0,VALID,100,VALID,0,VALID,19.3127,VALID,55,VALID,0.896354,
2005-01-27, 00:39:00,VALID,915.969,VALID,0,VALID,100,VALID,0.0169808,VALID,19.2971,VALID,55,VALID,0.740699,
2005-01-27, 00:40:00,VALID,915.961,VALID,0,VALID,100,VALID,-0.0169808,VALID,19.2777,VALID,55,VALID,0.855841,
2005-01-27, 00:41:00,VALID,915.964,VALID,0,VALID,100,VALID,0,VALID,19.3003,VALID,60,VALID,0.778582,
2005-01-27, 00:42:00,VALID,915.961,VALID,0,VALID,100,VALID,0,VALID,19.2996,VALID,72,VALID,0.843023,
2005-01-27, 00:43:00,VALID,915.94,VALID,0,VALID,100,VALID,0,VALID,19.2869,VALID,80,VALID,0.900799,
2005-01-27, 00:44:00,VALID,915.935,VALID,0,VALID,100,VALID,0,VALID,19.2452,VALID,80,VALID,0.882999,
2005-01-27, 00:45:00,VALID,915.915,VALID,0,VALID,100,VALID,0.0169808,VALID,19.2124,VALID,80,VALID,0.951219,
2005-01-27, 00:46:00,VALID,915.909,VALID,0,VALID,100,VALID,0,VALID,19.1997,VALID,94,VALID,0.964543,
2005-01-27, 00:47:00,VALID,915.901,VALID,0,VALID,100,VALID,0.0339617,VALID,19.199,VALID,96,VALID,1.00059,
2005-01-27, 00:48:00,VALID,915.887,VALID,0,VALID,100,VALID,0,VALID,19.2154,VALID,97,VALID,0.920072,
2005-01-27, 00:49:00,VALID,915.894,VALID,0,VALID,100,VALID,0.0169808,VALID,19.2256,VALID,98,VALID,1.03889,
2005-01-27, 00:50:00,VALID,915.875,VALID,0,VALID,100,VALID,0,VALID,19.229,VALID,101,VALID,1.02134,
2005-01-27, 00:51:00,VALID,915.866,VALID,0,VALID,100,VALID,0,VALID,19.2126,VALID,99,VALID,0.963034,
2005-01-27, 00:52:00,VALID,915.848,VALID,0,VALID,100,VALID,0.0169808,VALID,19.1836,VALID,89,VALID,0.996528,
2005-01-27, 00:53:00,VALID,915.828,VALID,0,VALID,100,VALID,0,VALID,19.1513,VALID,84,VALID,1.06012,
2005-01-27, 00:54:00,VALID,915.821,VALID,0,VALID,100,VALID,0.0169808,VALID,19.1061,VALID,83,VALID,0.962426,
2005-01-27, 00:55:00,VALID,915.794,VALID,0,VALID,100,VALID,0,VALID,19.0609,VALID,83,VALID,0.771151,
2005-01-27, 00:56:00,VALID,915.773,VALID,0,VALID,100,VALID,0,VALID,19.048,VALID,82,VALID,0.662566,
2005-01-27, 00:57:00,VALID,915.762,VALID,0,VALID,100,VALID,0,VALID,19.0221,VALID,82,VALID,0.71984,
2005-01-27, 00:58:00,VALID,915.755,VALID,0,VALID,100,VALID,0,VALID,19.0125,VALID,81,VALID,0.625744,
2005-01-27, 00:59:00,VALID,915.754,VALID,0,VALID,100,VALID,-0.0169808,VALID,19.0062,VALID,90,VALID,0.789993,
2005-01-27, 01:00:00,VALID,915.747,VALID,0,VALID,100,VALID,0,VALID,19.0065,VALID,91,VALID,0.613917,
2005-01-27, 01:01:00,VALID,915.743,VALID,0,VALID,100,VALID,0.0169808,VALID,18.9901,VALID,92,VALID,0.690104,
2005-01-27, 01:02:00,VALID,915.76,VALID,0,VALID,100,VALID,0,VALID,18.9933,VALID,92,VALID,0.74314,
2005-01-27, 01:03:00,VALID,915.752,VALID,0,VALID,100,VALID,0,VALID,18.9806,VALID,93,VALID,0.87391,
2005-01-27, 01:04:00,VALID,915.756,VALID,0,VALID,100,VALID,-0.0169808,VALID,19.0062,VALID,101,VALID,0.98402,
2005-01-27, 01:05:00,VALID,915.763,VALID,0,VALID,100,VALID,-0.0169808,VALID,19.0422,VALID,103,VALID,0.818216,
2005-01-27, 01:06:00,VALID,915.775,VALID,0,VALID,100,VALID,-0.0679233,VALID,19.0653,VALID,105,VALID,0.603981,
2005-01-27, 01:07:00,VALID,915.782,VALID,0,VALID,100,VALID,-0.0339617,VALID,19.075,VALID,105,VALID,0.542752,
2005-01-27, 01:08:00,VALID,915.79,VALID,0,VALID,100,VALID,-0.0849042,VALID,19.0648,VALID,105,VALID,0.45694,
2005-01-27, 01:09:00,VALID,915.78,VALID,0,VALID,100,VALID,-0.0849042,VALID,19.1003,VALID,105,VALID,0.560014,
2005-01-27, 01:10:00,VALID,915.766,VALID,0,VALID,100,VALID,-0.0679233,VALID,19.1426,VALID,105,VALID,0.54516,
2005-01-27, 01:11:00,VALID,915.751,VALID,0,VALID,100,VALID,-0.0339617,VALID,19.1652,VALID,105,VALID,0.497396,
2005-01-27, 01:12:00,VALID,915.725,VALID,0,VALID,100,VALID,-0.0679233,VALID,19.1885,VALID,105,VALID,0.275213,
2005-01-27, 01:13:00,VALID,915.711,VALID,0,VALID,100,VALID,-0.101885,VALID,19.1361,VALID,105,VALID,0.251524,
2005-01-27, 01:14:00,VALID,915.695,VALID,0,VALID,100,VALID,-0.0849042,VALID,19.1108,VALID,105,VALID,0.543064,
2005-01-27, 01:15:00,VALID,915.681,VALID,0,VALID,100,VALID,-0.0509425,VALID,19.1299,VALID,105,VALID,0.583615,
2005-01-27, 01:16:00,VALID,915.687,VALID,0,VALID,100,VALID,-0.0339617,VALID,19.1103,VALID,105,VALID,0.309766,
2005-01-27, 01:17:00,VALID,915.684,VALID,0,VALID,100,VALID,-0.0679233,VALID,19.0591,VALID,105,VALID,0.202415,
2005-01-27, 01:18:00,VALID,915.69,VALID,0,VALID,100,VALID,-0.0509425,VALID,18.9977,VALID,105,VALID,0.0491616,
2005-01-27, 01:19:00,VALID,915.682,VALID,0,VALID,100,VALID,-0.0339617,VALID,18.8771,VALID,105,VALID,0,
2005-01-27, 01:20:00,VALID,915.667,VALID,0,VALID,100,VALID,0.0679233,VALID,18.7703,VALID,105,VALID,0,
2005-01-27, 01:21:00,VALID,915.655,VALID,0,VALID,100,VALID,0.0339617,VALID,18.6834,VALID,105,VALID,0,
2005-01-27, 01:22:00,VALID,915.628,VALID,0,VALID,100,VALID,0.0509425,VALID,18.6248,VALID,105,VALID,0,
2005-01-27, 01:23:00,VALID,915.608,VALID,0,VALID,100,VALID,0.0339617,VALID,18.592,VALID,105,VALID,0,
2005-01-27, 01:24:00,VALID,915.599,VALID,0,VALID,100,VALID,0.0339617,VALID,18.5533,VALID,105,VALID,0.121094,
2005-01-27, 01:25:00,VALID,915.597,VALID,0,VALID,100,VALID,0.0679233,VALID,18.5632,VALID,105,VALID,0.44401,
2005-01-27, 01:26:00,VALID,915.587,VALID,0,VALID,100,VALID,0.0849042,VALID,18.6117,VALID,105,VALID,0.386083,
2005-01-27, 01:27:00,VALID,915.587,VALID,0,VALID,100,VALID,0.0339617,VALID,18.6797,VALID,105,VALID,0.244792,
2005-01-27, 01:28:00,VALID,915.597,VALID,0,VALID,100,VALID,0.0339617,VALID,18.7055,VALID,105,VALID,0.12936,
2005-01-27, 01:29:00,VALID,915.593,VALID,0,VALID,100,VALID,0.0679233,VALID,18.67,VALID,105,VALID,0,
2005-01-27, 01:30:00,VALID,915.595,VALID,0,VALID,100,VALID,0.0849042,VALID,18.6119,VALID,105,VALID,0,
2005-01-27, 01:31:00,VALID,915.591,VALID,0,VALID,100,VALID,0.0509425,VALID,18.5791,VALID,105,VALID,0,
2005-01-27, 01:32:00,VALID,915.597,VALID,0,VALID,100,VALID,0.0339617,VALID,18.5702,VALID,105,VALID,0,
2005-01-27, 01:33:00,VALID,915.58,VALID,0,VALID,100,VALID,0.0679233,VALID,18.5086,VALID,105,VALID,0.171875,
2005-01-27, 01:34:00,VALID,915.585,VALID,0,VALID,100,VALID,0.0849042,VALID,18.3859,VALID,105,VALID,0.173633,
2005-01-27, 01:35:00,VALID,915.568,VALID,0,VALID,100,VALID,-0.0339617,VALID,18.4936,VALID,105,VALID,0,
2005-01-27, 01:36:00,VALID,915.542,VALID,0,VALID,100,VALID,-0.0339617,VALID,18.5192,VALID,105,VALID,0,
2005-01-27, 01:37:00,VALID,915.521,VALID,0,VALID,100,VALID,-0.0679233,VALID,18.5132,VALID,105,VALID,0,
2005-01-27, 01:38:00,VALID,915.498,VALID,0,VALID,100,VALID,-0.0339617,VALID,18.507,VALID,105,VALID,0.0188643,
2005-01-27, 01:39:00,VALID,915.474,VALID,0,VALID,100,VALID,-0.0509425,VALID,18.5494,VALID,105,VALID,0.0325521,
2005-01-27, 01:40:00,VALID,915.438,VALID,0,VALID,100,VALID,-0.0679233,VALID,18.6006,VALID,105,VALID,0.284108,
2005-01-27, 01:41:00,VALID,915.421,VALID,0,VALID,100,VALID,-0.0849042,VALID,18.6271,VALID,105,VALID,0.346839,
2005-01-27, 01:42:00,VALID,915.396,VALID,0,VALID,100,VALID,-0.0509425,VALID,18.6786,VALID,105,VALID,0.421875,
2005-01-27, 01:43:00,VALID,915.375,VALID,0,VALID,100,VALID,-0.0849042,VALID,18.7268,VALID,105,VALID,0.480859,
2005-01-27, 01:44:00,VALID,915.343,VALID,0,VALID,100,VALID,-0.0509425,VALID,18.7265,VALID,105,VALID,0.536399,
2005-01-27, 01:45:00,VALID,915.345,VALID,0,VALID,100,VALID,-0.0509425,VALID,18.7526,VALID,105,VALID,0.59096,
2005-01-27, 01:46:00,VALID,915.324,VALID,0,VALID,100,VALID,-0.0849042,VALID,18.7106,VALID,105,VALID,0.589453,
2005-01-27, 01:47:00,VALID,915.318,VALID,0,VALID,100,VALID,-0.101885,VALID,18.7235,VALID,105,VALID,0.624023,
2005-01-27, 01:48:00,VALID,915.296,VALID,0,VALID,100,VALID,-0.0509425,VALID,18.7364,VALID,110,VALID,0.689406,
2005-01-27, 01:49:00,VALID,915.293,VALID,0,VALID,100,VALID,-0.0509425,VALID,18.7561,VALID,131,VALID,0.612614,
2005-01-27, 01:50:00,VALID,915.291,VALID,0,VALID,100,VALID,-0.0339617,VALID,18.8077,VALID,142,VALID,0.546875,
2005-01-27, 01:51:00,VALID,915.28,VALID,0,VALID,100,VALID,-0.0509425,VALID,18.8231,VALID,158,VALID,0.81064,
2005-01-27, 01:52:00,VALID,915.272,VALID,0,VALID,100,VALID,-0.0679233,VALID,18.8072,VALID,171,VALID,1.14881,
2005-01-27, 01:53:00,VALID,915.264,VALID,0,VALID,100,VALID,-0.0679233,VALID,18.8271,VALID,171,VALID,1.12936,
2005-01-27, 01:54:00,VALID,915.248,VALID,0,VALID,100,VALID,-0.0509425,VALID,18.8497,VALID,170,VALID,1.05431,
2005-01-27, 01:55:00,VALID,915.239,VALID,0,VALID,100,VALID,-0.0169808,VALID,18.8495,VALID,170,VALID,0.66441,
2005-01-27, 01:56:00,VALID,915.218,VALID,0,VALID,100,VALID,-0.0849042,VALID,18.8269,VALID,155,VALID,0.827744,
2005-01-27, 01:57:00,VALID,915.175,VALID,0,VALID,100,VALID,-0.0509425,VALID,18.8301,VALID,146,VALID,0.92748,
2005-01-27, 01:58:00,VALID,915.156,VALID,0,VALID,100,VALID,-0.0509425,VALID,18.804,VALID,146,VALID,0.749653,
2005-01-27, 01:59:00,VALID,915.122,VALID,0,VALID,100,VALID,-0.0509425,VALID,18.7782,VALID,136,VALID,0.609193,
2005-01-27, 02:00:00,VALID,915.11,VALID,0,VALID,100,VALID,-0.0339617,VALID,18.7625,VALID,127,VALID,0.609012,
2005-01-27, 02:01:00,VALID,915.104,VALID,0,VALID,100,VALID,-0.0339617,VALID,18.7397,VALID,121,VALID,0.703683,
2005-01-27, 02:02:00,VALID,915.101,VALID,0,VALID,100,VALID,-0.0509425,VALID,18.7399,VALID,121,VALID,0.89974,
2005-01-27, 02:03:00,VALID,915.099,VALID,0,VALID,100,VALID,-0.0339617,VALID,18.7521,VALID,140,VALID,0.841087,
2005-01-27, 02:04:00,VALID,915.112,VALID,0,VALID,100,VALID,-0.0339617,VALID,18.7491,VALID,143,VALID,0.629278,
2005-01-27, 02:05:00,VALID,915.111,VALID,0,VALID,100,VALID,0.0339617,VALID,18.771,VALID,143,VALID,0.43418,
2005-01-27, 02:06:00,VALID,915.124,VALID,0,VALID,100,VALID,0.0849042,VALID,18.7733,VALID,143,VALID,0.226042,
2005-01-27, 02:07:00,VALID,915.107,VALID,0,VALID,100,VALID,0.101885,VALID,18.7798,VALID,143,VALID,0.245536,
2005-01-27, 02:08:00,VALID,915.111,VALID,0,VALID,100,VALID,0.0679233,VALID,18.7862,VALID,142,VALID,0.427734,
2005-01-27, 02:09:00,VALID,915.104,VALID,0,VALID,100,VALID,0.0679233,VALID,18.7996,VALID,130,VALID,0.474564,
2005-01-27, 02:10:00,VALID,915.075,VALID,0,VALID,100,VALID,0.0679233,VALID,18.7542,VALID,119,VALID,0.578307,
2005-01-27, 02:11:00,VALID,915.059,VALID,0,VALID,100,VALID,0.0339617,VALID,18.7798,VALID,108,VALID,0.854883,
2005-01-27, 02:12:00,VALID,915.035,VALID,0,VALID,100,VALID,0.0679233,VALID,18.8289,VALID,92,VALID,0.75,
2005-01-27, 02:13:00,VALID,915.021,VALID,0,VALID,100,VALID,0.0849042,VALID,18.8058,VALID,86,VALID,0.913154,
2005-01-27, 02:14:00,VALID,915.013,VALID,0,VALID,100,VALID,0.0849042,VALID,18.8056,VALID,94,VALID,0.959449,
2005-01-27, 02:15:00,VALID,915.01,VALID,0,VALID,100,VALID,0.0679233,VALID,18.815,VALID,103,VALID,0.883614,
2005-01-27, 02:16:00,VALID,915.02,VALID,0,VALID,100,VALID,0.0679233,VALID,18.8287,VALID,105,VALID,0.971128,
2005-01-27, 02:17:00,VALID,915.025,VALID,0,VALID,100,VALID,0.0679233,VALID,18.8095,VALID,113,VALID,0.91276,
2005-01-27, 02:18:00,VALID,915.006,VALID,0,VALID,100,VALID,0.0679233,VALID,18.7705,VALID,116,VALID,0.734375,
2005-01-27, 02:19:00,VALID,914.99,VALID,0,VALID,100,VALID,0.0849042,VALID,18.7378,VALID,116,VALID,0.780859,
2005-01-27, 02:20:00,VALID,914.963,VALID,0,VALID,100,VALID,0.0169808,VALID,18.7549,VALID,108,VALID,1.26222,
2005-01-27, 02:21:00,VALID,914.95,VALID,0,VALID,100,VALID,-0.0339617,VALID,18.8008,VALID,111,VALID,1.11142,
2005-01-27, 02:22:00,VALID,914.938,VALID,0,VALID,100,VALID,-0.0169808,VALID,18.804,VALID,121,VALID,0.898996,
2005-01-27, 02:23:00,VALID,914.912,VALID,0,VALID,100,VALID,-0.0169808,VALID,18.8035,VALID,124,VALID,0.735618,
2005-01-27, 02:24:00,VALID,914.903,VALID,0,VALID,100,VALID,-0.0169808,VALID,18.7976,VALID,117,VALID,0.769886,
2005-01-27, 02:25:00,VALID,914.889,VALID,0,VALID,100,VALID,0,VALID,18.8072,VALID,120,VALID,0.855923,
2005-01-27, 02:26:00,VALID,914.894,VALID,0,VALID,100,VALID,-0.0169808,VALID,18.8068,VALID,125,VALID,0.975074,
2005-01-27, 02:27:00,VALID,914.901,VALID,0,VALID,100,VALID,0,VALID,18.8229,VALID,121,VALID,0.907012,
2005-01-27, 02:28:00,VALID,914.911,VALID,0,VALID,100,VALID,-0.0339617,VALID,18.8194,VALID,101,VALID,0.952009,
2005-01-27, 02:29:00,VALID,914.928,VALID,0,VALID,100,VALID,-0.0509425,VALID,18.8298,VALID,122,VALID,0.970238,
2005-01-27, 02:30:00,VALID,914.935,VALID,0,VALID,100,VALID,-0.0339617,VALID,18.8335,VALID,117,VALID,0.95293,
2005-01-27, 02:31:00,VALID,914.956,VALID,0,VALID,100,VALID,-0.0169808,VALID,18.8031,VALID,113,VALID,1.04342,
2005-01-27, 02:32:00,VALID,914.964,VALID,0,VALID,100,VALID,-0.0169808,VALID,18.8202,VALID,107,VALID,0.54859,
2005-01-27, 02:33:00,VALID,914.954,VALID,0,VALID,100,VALID,-0.0509425,VALID,18.8269,VALID,109,VALID,0.778646,
2005-01-27, 02:34:00,VALID,914.935,VALID,0,VALID,100,VALID,-0.0679233,VALID,18.8102,VALID,107,VALID,0.70277,
2005-01-27, 02:35:00,VALID,914.908,VALID,0,VALID,100,VALID,-0.0339617,VALID,18.8365,VALID,98,VALID,0.755269,
2005-01-27, 02:36:00,VALID,914.868,VALID,0,VALID,100,VALID,-0.0339617,VALID,18.8368,VALID,90,VALID,0.84566,
2005-01-27, 02:37:00,VALID,914.848,VALID,0,VALID,100,VALID,-0.0509425,VALID,18.8199,VALID,98,VALID,0.926781,
2005-01-27, 02:38:00,VALID,914.819,VALID,0,VALID,100,VALID,-0.0339617,VALID,18.8107,VALID,92,VALID,1.07503,
2005-01-27, 02:39:00,VALID,914.805,VALID,0,VALID,100,VALID,-0.0169808,VALID,18.7779,VALID,101,VALID,1.0545,
2005-01-27, 02:40:00,VALID,914.796,VALID,0,VALID,100,VALID,-0.0339617,VALID,18.7717,VALID,103,VALID,1.07013,
2005-01-27, 02:41:00,VALID,914.803,VALID,0,VALID,100,VALID,-0.0509425,VALID,18.7556,VALID,106,VALID,1.14472,
2005-01-27, 02:42:00,VALID,914.792,VALID,0,VALID,100,VALID,-0.0339617,VALID,18.7496,VALID,110,VALID,1.15511,
2005-01-27, 02:43:00,VALID,914.804,VALID,0,VALID,100,VALID,-0.0169808,VALID,18.7231,VALID,117,VALID,1.14528,
2005-01-27, 02:44:00,VALID,914.796,VALID,0,VALID,100,VALID,-0.0339617,VALID,18.7295,VALID,121,VALID,1.07031,
2005-01-27, 02:45:00,VALID,914.789,VALID,0,VALID,100,VALID,0,VALID,18.7261,VALID,135,VALID,0.877308,
2005-01-27, 02:46:00,VALID,914.775,VALID,0,VALID,100,VALID,-0.0509425,VALID,18.736,VALID,117,VALID,1.14672,
2005-01-27, 02:47:00,VALID,914.761,VALID,0,VALID,100,VALID,-0.0679233,VALID,18.7401,VALID,115,VALID,0.98819,
2005-01-27, 02:48:00,VALID,914.749,VALID,0,VALID,100,VALID,-0.0339617,VALID,18.7198,VALID,109,VALID,0.745427,
2005-01-27, 02:49:00,VALID,914.734,VALID,0,VALID,100,VALID,-0.0339617,VALID,18.7233,VALID,126,VALID,0.878906,
2005-01-27, 02:50:00,VALID,914.732,VALID,0,VALID,100,VALID,-0.0509425,VALID,18.7203,VALID,131,VALID,1.19531,
2005-01-27, 02:51:00,VALID,914.724,VALID,0,VALID,100,VALID,-0.101885,VALID,18.733,VALID,112,VALID,1.02958,
2005-01-27, 02:52:00,VALID,914.738,VALID,0,VALID,100,VALID,-0.0339617,VALID,18.7558,VALID,123,VALID,0.90904,
2005-01-27, 02:53:00,VALID,914.731,VALID,0,VALID,100,VALID,-0.0679233,VALID,18.762,VALID,121,VALID,0.757068,
2005-01-27, 02:54:00,VALID,914.744,VALID,0,VALID,100,VALID,-0.0679233,VALID,18.7496,VALID,131,VALID,0.884811,
2005-01-27, 02:55:00,VALID,914.74,VALID,0,VALID,100,VALID,-0.0169808,VALID,18.7305,VALID,146,VALID,1.08825,
2005-01-27, 02:56:00,VALID,914.751,VALID,0,VALID,100,VALID,-0.0169808,VALID,18.73,VALID,131,VALID,0.92024,
2005-01-27, 02:57:00,VALID,914.719,VALID,0,VALID,100,VALID,-0.101885,VALID,18.7208,VALID,139,VALID,1.10816,
2005-01-27, 02:58:00,VALID,914.703,VALID,0,VALID,100,VALID,-0.0339617,VALID,18.7044,VALID,130,VALID,0.68192,
2005-01-27, 02:59:00,VALID,914.666,VALID,0,VALID,100,VALID,-0.0339617,VALID,18.6915,VALID,93,VALID,1.01864,
2005-01-27, 03:00:00,VALID,914.659,VALID,0,VALID,100,VALID,-0.0339617,VALID,18.6979,VALID,109,VALID,0.914595,
2005-01-27, 03:01:00,VALID,914.642,VALID,0,VALID,100,VALID,-0.0509425,VALID,18.6751,VALID,102,VALID,0.835732,
2005-01-27, 03:02:00,VALID,914.638,VALID,0,VALID,100,VALID,-0.0339617,VALID,18.6749,VALID,114,VALID,0.732617,
2005-01-27, 03:03:00,VALID,914.63,VALID,0,VALID,100,VALID,-0.0509425,VALID,18.6652,VALID,119,VALID,0.780705,
2005-01-27, 03:04:00,VALID,914.64,VALID,0,VALID,100,VALID,-0.0509425,VALID,18.6912,VALID,132,VALID,0.995561,
2005-01-27, 03:05:00,VALID,914.639,VALID,0,VALID,100,VALID,0.0509425,VALID,18.7127,VALID,132,VALID,0.983631,
2005-01-27, 03:06:00,VALID,914.626,VALID,0,VALID,100,VALID,0.101885,VALID,18.7187,VALID,140,VALID,1.08371,
2005-01-27, 03:07:00,VALID,914.627,VALID,0,VALID,100,VALID,0.0339617,VALID,18.7219,VALID,148,VALID,1.21205,
2005-01-27, 03:08:00,VALID,914.614,VALID,0,VALID,100,VALID,0.0509425,VALID,18.7385,VALID,130,VALID,0.680051,
2005-01-27, 03:09:00,VALID,914.591,VALID,0,VALID,100,VALID,0.0679233,VALID,18.7157,VALID,146,VALID,1.31868,
2005-01-27, 03:10:00,VALID,914.56,VALID,0,VALID,100,VALID,0.0339617,VALID,18.7191,VALID,147,VALID,1.34109,
2005-01-27, 03:11:00,VALID,914.541,VALID,0,VALID,100,VALID,0.0339617,VALID,18.7064,VALID,147,VALID,1.25724,
2005-01-27, 03:12:00,VALID,914.499,VALID,0,VALID,100,VALID,0.0169808,VALID,18.6866,VALID,149,VALID,1.12264,
2005-01-27, 03:13:00,VALID,914.471,VALID,0,VALID,100,VALID,0.0339617,VALID,18.6836,VALID,147,VALID,1.04707,
2005-01-27, 03:14:00,VALID,914.429,VALID,0,VALID,100,VALID,0.0679233,VALID,18.6739,VALID,145,VALID,1.23029,
2005-01-27, 03:15:00,VALID,914.4,VALID,0,VALID,100,VALID,0.0509425,VALID,18.6675,VALID,140,VALID,1.25089,
2005-01-27, 03:16:00,VALID,914.362,VALID,0,VALID,100,VALID,0,VALID,18.6739,VALID,141,VALID,1.10087,
2005-01-27, 03:17:00,VALID,914.336,VALID,0,VALID,100,VALID,0.0509425,VALID,18.697,VALID,136,VALID,0.974848,
2005-01-27, 03:18:00,VALID,914.312,VALID,0,VALID,100,VALID,0.0339617,VALID,18.6933,VALID,131,VALID,0.982227,
2005-01-27, 03:19:00,VALID,914.301,VALID,0,VALID,100,VALID,0.0339617,VALID,18.703,VALID,132,VALID,0.758185,
2005-01-27, 03:20:00,VALID,914.295,VALID,0,VALID,100,VALID,0.0169808,VALID,18.6963,VALID,135,VALID,0.708031,
2005-01-27, 03:21:00,VALID,914.306,VALID,0,VALID,100,VALID,0.0169808,VALID,18.7097,VALID,144,VALID,0.848544,
2005-01-27, 03:22:00,VALID,914.314,VALID,0,VALID,100,VALID,0.0339617,VALID,18.6965,VALID,145,VALID,0.956364,
2005-01-27, 03:23:00,VALID,914.328,VALID,0,VALID,100,VALID,0.0679233,VALID,18.703,VALID,152,VALID,0.789789,
2005-01-27, 03:24:00,VALID,914.335,VALID,0,VALID,100,VALID,0.0679233,VALID,18.6965,VALID,155,VALID,0.572545,
2005-01-27, 03:25:00,VALID,914.343,VALID,0,VALID,100,VALID,0.0509425,VALID,18.6871,VALID,150,VALID,1.08067,
2005-01-27, 03:26:00,VALID,914.354,VALID,0,VALID,100,VALID,0.0679233,VALID,18.6901,VALID,140,VALID,0.94779,
2005-01-27, 03:27:00,VALID,914.356,VALID,0,VALID,100,VALID,0.0339617,VALID,18.6737,VALID,168,VALID,0.981957,
2005-01-27, 03:28:00,VALID,914.378,VALID,0,VALID,100,VALID,0.0849042,VALID,18.6871,VALID,166,VALID,0.943954,
2005-01-27, 03:29:00,VALID,914.393,VALID,0,VALID,100,VALID,0.0169808,VALID,18.6935,VALID,175,VALID,0.76835,
2005-01-27, 03:30:00,VALID,914.39,VALID,0,VALID,100,VALID,0.0509425,VALID,18.6901,VALID,162,VALID,0.280273,
2005-01-27, 03:31:00,VALID,914.394,VALID,0,VALID,100,VALID,0.0339617,VALID,18.6776,VALID,150,VALID,0.688388,
2005-01-27, 03:32:00,VALID,914.41,VALID,0,VALID,100,VALID,0,VALID,18.6739,VALID,141,VALID,0.442336,
2005-01-27, 03:33:00,VALID,914.408,VALID,0,VALID,100,VALID,0.0509425,VALID,18.6645,VALID,138,VALID,0.415551,
2005-01-27, 03:34:00,VALID,914.422,VALID,0,VALID,100,VALID,0.0169808,VALID,18.6548,VALID,141,VALID,0.180753,
2005-01-27, 03:35:00,VALID,914.448,VALID,0,VALID,100,VALID,-0.0509425,VALID,18.623,VALID,141,VALID,0.0756479,
2005-01-27, 03:36:00,VALID,914.474,VALID,0,VALID,100,VALID,-0.0509425,VALID,18.5946,VALID,141,VALID,0.00105574,
2005-01-27, 03:37:00,VALID,914.497,VALID,0,VALID,100,VALID,-0.0849042,VALID,18.5755,VALID,141,VALID,0.197856,
2005-01-27, 03:38:00,VALID,914.509,VALID,0,VALID,100,VALID,-0.0679233,VALID,18.569,VALID,141,VALID,0.145167,
2005-01-27, 03:39:00,VALID,914.526,VALID,0,VALID,100,VALID,-0.0849042,VALID,18.5725,VALID,141,VALID,0.155895,